Regional Weather Roundup
Issued by NWS

Home | Current Version | Previous Version | Graphics & Text | Print | Product List | Glossary On
Versions: 1 2 3 4 5 6 7 8 9 10 11 12 13 14 15 16 17 18 19 20 21 22 23 24 25 26 27 28 29 30 31 32 33 34 35 36 37 38 39 40 41 42 43 44 45 46 47 48 49 50
000
ASUS45 KCYS 230610
RWRWY

WYOMING REGIONAL WEATHER ROUNDUP
NATIONAL WEATHER SERVICE CHEYENNE WY
1200 AM MDT WED JUL 23 2014

NOTE:  "FAIR" INDICATES FEW OR NO CLOUDS BELOW 12,000 FEET
WITH NO SIGNIFICANT WEATHER AND/OR OBSTRUCTIONS TO VISIBILITY.

WYZ001-230700-
YELLOWSTONE NATIONAL PARK

CITY           SKY/WX    TMP DP  RH WIND       PRES   REMARKS
LK YELLOWSTONE   N/A     48  42  80 CALM      30.48S
6HR MIN TEMP:  48; 6HR MAX TEMP:  73;

W YELLOWSTONE  NOT AVBL

$$
WYZ002>013-054>058-071-098>099-230700-
NORTHERN WYOMING

CITY           SKY/WX    TMP DP  RH WIND       PRES   REMARKS
JACKSON        CLEAR     55  45  67 N7        30.34S
CODY           CLEAR     70  45  40 N8        30.30R
GREYBULL       CLEAR     74  50  42 W15       30.16R
6HR MIN TEMP:  74; 6HR MAX TEMP:  97;

WORLAND        CLEAR     73  48  41 NW3       30.18R
6HR MIN TEMP:  70; 6HR MAX TEMP:  97;

SHERIDAN       CLEAR     63  56  78 S6        30.31S
6HR MIN TEMP:  62; 6HR MAX TEMP:  92;

BUFFALO        CLEAR     67  53  61 NW7       30.39R
6HR MIN TEMP:  67; 6HR MAX TEMP:  90;

GILLETTE       PTCLDY    65  58  78 CALM      30.32R
6HR MIN TEMP:  65; 6HR MAX TEMP:  87;

HULETT         CLOUDY    64  63  94 MISG      30.30
NEWCASTLE      FAIR      73  52  46 MISG      30.26

$$
WYZ014>020-022>026-101>103-230700-
CENTRAL WYOMING

CITY           SKY/WX    TMP DP  RH WIND       PRES   REMARKS
BIG PINEY      PTCLDY    56  30  37 N6        30.39S
6HR MIN TEMP:  55; 6HR MAX TEMP:  87;

PINEDALE       CLEAR     52  43  71 W3        30.40F
DUBOIS         FAIR      57  32  38 NW8       30.42S
LANDER         CLEAR     70  33  25 S5        30.25R
6HR MIN TEMP:  69; 6HR MAX TEMP:  92;

RIVERTON       CLEAR     72  34  24 NE6       30.25F
6HR MIN TEMP:  69; 6HR MAX TEMP:  93;

CASPER         CLEAR     68  46  45 NW13      30.27R
6HR MIN TEMP:  63; 6HR MAX TEMP:  93; 6HR PCP:  0.01;

DOUGLAS        CLEAR     73  55  53 E15       30.27R
6HR MIN TEMP:  70; 6HR MAX TEMP:  90;


$$
WYZ021-027>030-104>119-230700-
SOUTHERN WYOMING

CITY           SKY/WX    TMP DP  RH WIND       PRES   REMARKS
EVANSTON       CLEAR     66  35  31 S6        30.37S
6HR MIN TEMP:  66; 6HR MAX TEMP:  88;

KEMMERER       CLEAR     63  32  31 N9        30.40S
FORT BRIDGER   FAIR      72  32  22 S3        30.40S
ROCK SPRINGS   CLEAR     72  23  16 SE9       30.36S
6HR MIN TEMP:  71; 6HR MAX TEMP:  89;

DIXON          FAIR      67  28  23 E13       30.38S
RAWLINS        CLEAR     63  22  20 W3        30.38R
6HR MIN TEMP:  63; 6HR MAX TEMP:  90;

SARATOGA       FAIR      59  32  36 SE7       30.41S
LARAMIE        CLEAR     68  52  56 SE17      30.44F
6HR MIN TEMP:  67; 6HR MAX TEMP:  83;

CHEYENNE       CLEAR     71  58  63 S13       30.40R
6HR MIN TEMP:  71; 6HR MAX TEMP:  85;

TORRINGTON     CLEAR     74  59  59 E14       30.27R
6HR MIN TEMP:  73; 6HR MAX TEMP:  90;

PINE BLUFFS    FAIR      72  59  64 SE15G21   30.34R

$$


USA.gov is the U.S. government's official web portal to all federal, state and local government web resources and services.